Location: Unspecified
(50.1700°N, 6.8600°E)
Time: 20:42:31
(UTC+00:00)

IDEFIX/ARIANE 42P - Pass Details

Date: 24 January 2019
Orbit: 786 x 802 km, 98.3° (Epoch: 16 February)

Event Time Altitude Azimuth Distance (km) Brightness Sun altitude
Rises 03:13:32 0° 20° (NNE) 3,326 6.2 -38.6°
Reaches altitude 10° 03:16:05 10° 30° (NNE) 2,391 5.5 -38.2°
Enters shadow 03:18:50 26° 53° (NE) 1,551 4.5 -37.8°
